Content
SEND FEEDBACK

Daily
Averages
Monthly
Summary
United States of America

MERIZO, GUAM


Home > North America > United States > Guam
Elevation: 10 feet     Latitude: 13 14N     Longitude: 144 39E

WEATHER
 
SELECT A DAY
Number of Records: 356,513;   Date Range: 1/1/95 - 12/18/14
 
SHARE

PRINT THIS DATA

[ ← Previous Day ]
WEATHER ALMANAC - APRIL 28, 2013
[ Next Day → ]
[ °C ]   °F
Weather ElementAverageHighLow
Temperature80.9 °F86.2 °F (11:55 am)77 °F (10:36 pm)
Dewpoint74.7 °F75.2 °F (12:24 am)73.4 °F (1:47 am)
Humidity81.7 %90 % (10:55 pm)68 % (12:55 pm)
Barometer29.88 in29.91 in (8:30 am)29.83 in (2:55 pm)
Wind Speed12.2 mph17.3 mph (10:26 pm)
Wind Gust21.9 mph (11:26 am)
Weather ElementAverage
Visibility9.8 mi
Wind DirectionENE (66.3 °)

Weather ElementTotal
Precipitation0.01 in
Cooling Degree Days16.6 (Base 65)
Growing Degree Days31.6 (Base 50)
Averaged from 71 records on April 28, 2013
WEATHER CONDITIONS BREAKOUT
WIND DIRECTION BREAKOUT
WEATHER BY HOUR - APRIL 28, 2013
[ °C ]   °F
Local TimeTemperatureDewpointHumidityBarometerVisibilityWind DirectionWind SpeedGust SpeedPrecipitationEventsConditions
12:24 AM78.8 °F75.2 °F89 %29.87 in10.0 miEast (90°)9.2 mphMostly Cloudy
12:25 AM78.8 °F75.2 °F89 %29.87 in10.0 miEast (80°)10.4 mphMostly Cloudy
12:27 AM78.8 °F75.2 °F89 %29.87 in10.0 miEast (80°)10.4 mphScattered Clouds
12:55 AM79.3 °F74.8 °F86 %29.87 in10.0 miEast (90°)9.2 mphScattered Clouds
1:24 AM78.8 °F75.2 °F89 %29.87 in10.0 miEast (80°)8.1 mphMostly Cloudy
1:47 AM78.8 °F73.4 °F83 %29.86 in10.0 miEast (80°)8.1 mphScattered Clouds
1:49 AM78.8 °F73.4 °F83 %29.86 in10.0 miEast (80°)8.1 mphMostly Cloudy
1:52 AM78.8 °F75.2 °F89 %29.86 in10.0 miENE (70°)11.5 mphMostly Cloudy
1:55 AM79.2 °F74.3 °F85 %29.86 in10.0 miENE (70°)12.7 mphMostly Cloudy
2:07 AM78.8 °F73.4 °F83 %29.86 in10.0 miEast (80°)11.5 mphScattered Clouds
2:55 AM78.3 °F73.6 °F85 %29.85 in10.0 miENE (70°)12.7 mphPartly Cloudy
3:39 AM78.8 °F73.4 °F83 %29.85 in10.0 miENE (60°)9.2 mphMostly Cloudy
3:41 AM78.8 °F73.4 °F83 %29.85 in10.0 miENE (70°)11.5 mphScattered Clouds
3:52 AM78.8 °F73.4 °F83 %29.85 in10.0 miENE (70°)9.2 mphMostly Cloudy
3:53 AM78.8 °F73.4 °F83 %29.85 in10.0 miENE (70°)10.4 mphMostly Cloudy
3:55 AM78.4 °F73.9 °F86 %29.85 in10.0 miENE (70°)11.5 mphMostly Cloudy
4:07 AM78.8 °F73.4 °F83 %29.85 in10.0 miENE (60°)10.4 mphScattered Clouds
4:55 AM77.9 °F74.1 °F88 %29.86 in10.0 miENE (70°)10.4 mphClear
5:55 AM78.1 °F74.3 °F88 %29.87 in10.0 miENE (70°)10.4 mphPartly Cloudy
6:02 AM78.8 °F75.2 °F89 %29.87 in10.0 miENE (70°)10.4 mphMostly Cloudy
6:04 AM78.8 °F75.2 °F89 %29.87 in10.0 miENE (70°)11.5 mphScattered Clouds
6:17 AM78.8 °F75.2 °F89 %29.88 in10.0 miENE (70°)10.4 mphMostly Cloudy
6:23 AM78.8 °F75.2 °F89 %29.88 in10.0 miENE (70°)10.4 mphScattered Clouds
6:48 AM78.8 °F75.2 °F89 %29.89 in10.0 miENE (70°)9.2 mphLight Drizzle
6:55 AM80.2 °F74.8 °F84 %29.89 in10.0 miENE (70°)11.5 mph0.00 inLight Drizzle
6:57 AM80.6 °F75.2 °F84 %29.89 in10.0 miENE (70°)11.5 mphScattered Clouds
7:55 AM82.8 °F75.0 °F77 %29.90 in10.0 miNE (50°)11.5 mph0.00 inPartly Cloudy
8:30 AM82.4 °F75.2 °F79 %29.91 in10.0 miNE (50°)16.1 mphMostly Cloudy
8:38 AM82.4 °F75.2 °F79 %29.91 in10.0 miENE (60°)11.5 mphMostly Cloudy
8:41 AM82.4 °F75.2 °F79 %29.91 in10.0 miNE (50°)11.5 mphLight Drizzle
8:44 AM82.4 °F75.2 °F79 %29.91 in10.0 miENE (70°)12.7 mphLight Drizzle
8:49 AM84.2 °F73.4 °F70 %29.91 in10.0 miENE (70°)12.7 mphLight Drizzle
8:52 AM84.2 °F75.2 °F74 %29.91 in10.0 miNE (50°)13.8 mphScattered Clouds
8:55 AM84.2 °F74.7 °F73 %29.91 in10.0 miNE (50°)15.0 mph0.00 inScattered Clouds
9:17 AM84.2 °F75.2 °F74 %29.91 in10.0 miNE (50°)12.7 mphMostly Cloudy
9:19 AM84.2 °F75.2 °F74 %29.91 in10.0 miENE (60°)13.8 mphScattered Clouds
9:20 AM84.2 °F75.2 °F74 %29.91 in10.0 miENE (60°)12.7 mphMostly Cloudy
9:55 AM84.6 °F74.8 °F72 %29.91 in10.0 miENE (70°)11.5 mphMostly Cloudy
10:03 AM86.0 °F75.2 °F70 %29.91 in10.0 miENE (70°)13.8 mphScattered Clouds
10:14 AM86.0 °F75.2 °F70 %29.91 in10.0 miENE (70°)12.7 mphMostly Cloudy
10:23 AM86.0 °F75.2 °F70 %29.91 in10.0 miEast (80°)15.0 mph19.6 mphScattered Clouds
10:55 AM84.9 °F74.8 °F72 %29.90 in10.0 miENE (70°)13.8 mphMostly Cloudy
10:57 AM84.2 °F75.2 °F74 %29.90 in10.0 miENE (60°)13.8 mphScattered Clouds
11:21 AM84.2 °F75.2 °F74 %29.89 in10.0 miENE (70°)13.8 mphMostly Cloudy
11:26 AM86.0 °F75.2 °F70 %29.89 in10.0 miNE (40°)13.8 mph21.9 mphScattered Clouds
11:55 AM86.2 °F75.2 °F70 %29.88 in10.0 miEast (80°)12.7 mph19.6 mphPartly Cloudy
12:55 PM86.0 °F74.3 °F68 %29.86 in10.0 miNE (50°)15.0 mphMostly Cloudy
1:55 PM86.0 °F74.5 °F68 %29.84 in10.0 miEast (80°)15.0 mphPartly Cloudy
2:55 PM84.4 °F74.8 °F73 %29.83 in10.0 miENE (60°)12.7 mphScattered Clouds
3:55 PM84.2 °F75.0 °F74 %29.83 in10.0 miENE (60°)13.8 mphPartly Cloudy
4:55 PM83.5 °F74.8 °F75 %29.83 in10.0 miENE (60°)13.8 mphScattered Clouds
5:55 PM82.0 °F74.1 °F77 %29.84 in10.0 miENE (70°)12.7 mphPartly Cloudy
6:55 PM80.2 °F73.8 °F81 %29.86 in10.0 miENE (60°)11.5 mphPartly Cloudy
7:55 PM79.5 °F73.6 °F82 %29.88 in10.0 miENE (70°)10.4 mphPartly Cloudy
8:46 PM80.6 °F75.2 °F84 %29.90 in10.0 miENE (60°)13.8 mphMostly Cloudy
8:55 PM79.9 °F74.1 °F82 %29.90 in10.0 miENE (60°)12.7 mphMostly Cloudy
9:00 PM80.6 °F75.2 °F84 %29.90 in10.0 miENE (60°)13.8 mphScattered Clouds
9:16 PM80.6 °F75.2 °F84 %29.90 in10.0 miENE (60°)12.7 mphRainLight Rain
9:22 PM78.8 °F75.2 °F89 %29.91 in9.0 miENE (70°)16.1 mphRainLight Rain
9:25 PM78.8 °F75.2 °F89 %29.91 in9.0 miENE (70°)13.8 mphRainLight Rain
9:28 PM78.8 °F75.2 °F89 %29.91 in9.0 miENE (70°)13.8 mphLight Drizzle
9:32 PM78.8 °F75.2 °F89 %29.91 in10.0 miENE (60°)12.7 mphMostly Cloudy
9:55 PM78.6 °F75.2 °F89 %29.91 in10.0 miENE (60°)10.4 mph0.00 inScattered Clouds
10:16 PM78.8 °F75.2 °F89 %29.91 in10.0 miENE (60°)11.5 mphMostly Cloudy
10:19 PM78.8 °F75.2 °F89 %29.91 in10.0 miENE (60°)13.8 mphScattered Clouds
10:26 PM78.8 °F75.2 °F89 %29.91 in7.0 miENE (70°)17.3 mphRainLight Rain
10:27 PM78.8 °F75.2 °F89 %29.91 in6.0 miENE (70°)16.1 mphRainRain
10:36 PM77.0 °F73.4 °F89 %29.91 in8.0 miENE (60°)12.7 mphRainLight Rain
10:38 PM77.0 °F73.4 °F89 %29.91 in10.0 miENE (60°)11.5 mphOvercast
10:55 PM78.4 °F75.2 °F90 %29.91 in10.0 miENE (60°)11.5 mph0.01 inMostly Cloudy
11:55 PM78.6 °F75.0 °F89 %29.89 in10.0 miENE (60°)13.8 mphPartly Cloudy
Hourly data recorded from PGUA, located miles away from Merizo, Guam







STORIES FROM OUR PARTNERS